Flag for Poland Weather past 2 weeks in Rzeszów, Poland

Now
48 °F

Clear.


Feels Like: 46 °F
Forecast: 43 / 67 °F
Wind: 6 mph from Northeast

Location: Rzeszow-Jasionka


UV Index: 0 (Low)

Visibility: 10 mi


Pressure: 29.86 "Hg

Humidity: 82%

Dew point: 43 °F

Location of RzeszówLocation

Historic Weather in Rzeszów

°F

Rzeszów temperature yesterday

Maximum temperature yesterday: 68 °F (at 4:30 PM)
Minimum temperature yesterday: 37 °F (at 4:00 AM)
Average temperature yesterday: 54 °F

Past Weeks' High & Low Weather Summary

 TemperatureHumidityPressure
High70 °F (Apr 8, 1:00 PM)100% (Apr 4, 6:30 AM)30.30 "Hg (Apr 4, 6:30 AM)
Low34 °F (Apr 11, 3:30 AM)38% (Apr 5, 1:30 PM)29.65 "Hg (Apr 14, 2:00 PM)
Average47 °F76%29.99 "Hg
* Reported Apr 4 4:00 AM — Apr 19 4:00 AM, Rzeszów, Weather by CustomWeather, © 2014

Note: Actual official high and low records may vary slightly from our data, if they occured in-between our weather recording intervals... More about our weather records

Advertising

Historic Weather Conditions — Data for Previous 24 hours

 ConditionsComfort  
Time TempWeatherWind HumidityBarometerVisibility
4:00 AM
Apr 19
48 °FClear.7 mph82%29.86 "Hg10 mi
3:30 AM52 °FClear.8 mph72%29.86 "Hg10 mi
3:00 AM52 °FClear.7 mph72%29.86 "Hg10 mi
2:30 AM50 °FClear.6 mph76%29.86 "Hg10 mi
2:00 AM50 °FClear.6 mph76%29.86 "Hg10 mi
1:30 AM52 °FClear.7 mph72%29.86 "Hg10 mi
1:00 AM54 °FClear.6 mph67%29.86 "Hg10 mi
12:30 AM54 °FClear.6 mph67%29.86 "Hg10 mi
12:00 AM54 °FClear.5 mph67%29.83 "Hg10 mi
11:30 PM
Apr 18
55 °FClear.6 mph63%29.83 "Hg10 mi
11:00 PM55 °FClear.5 mph63%29.83 "Hg10 mi
10:30 PM55 °FClear.7 mph63%29.83 "Hg10 mi
10:00 PM57 °FClear.6 mph59%29.83 "Hg10 mi
9:30 PM57 °FClear.6 mph63%29.83 "Hg10 mi
9:00 PM57 °FClear.8 mph63%29.80 "Hg10 mi
8:30 PM59 °FClear.10 mph59%29.80 "Hg10 mi
8:00 PM61 °FSunny.8 mph55%29.80 "Hg10 mi
7:30 PM61 °FSunny.10 mph55%29.77 "Hg10 mi
7:00 PM64 °FSunny.13 mph46%29.77 "Hg10 mi
6:30 PM66 °FSunny.16 mph46%29.77 "Hg10 mi
6:00 PM66 °FSunny.15 mph52%29.77 "Hg10 mi
5:30 PM66 °FSunny.13 mph52%29.77 "Hg10 mi
5:00 PM66 °FSunny.15 mph52%29.77 "Hg10 mi
4:30 PM68 °FPassing clouds.15 mph46%29.77 "HgN/A
4:00 PM66 °FPassing clouds.12 mph56%29.77 "HgN/A
3:30 PM66 °FPassing clouds.13 mph52%29.77 "HgN/A
3:00 PM66 °FPassing clouds.13 mph52%29.77 "HgN/A
2:30 PM66 °FPassing clouds.12 mph56%29.77 "HgN/A
2:00 PM64 °FPassing clouds.12 mph60%29.77 "HgN/A
1:30 PM64 °FPassing clouds.12 mph60%29.80 "HgN/A
1:00 PM64 °FSunny.12 mph60%29.80 "Hg10 mi
12:30 PM63 °FPassing clouds.10 mph59%29.80 "HgN/A
12:00 PM61 °FSunny.9 mph63%29.80 "Hg10 mi
11:30 AM61 °FPassing clouds.8 mph63%29.83 "HgN/A
11:00 AM57 °FSunny.9 mph72%29.83 "Hg10 mi
10:30 AM55 °FPassing clouds.8 mph77%29.83 "HgN/A
10:00 AM54 °FPassing clouds.6 mph77%29.83 "HgN/A
9:30 AM50 °FSunny.1 mph82%29.86 "Hg10 mi
9:00 AM48 °FSunny.No wind82%29.86 "Hg10 mi
8:30 AM46 °FSunny.1 mph87%29.86 "Hg10 mi
8:00 AM45 °FClear.No wind100%29.86 "Hg4 mi
7:30 AM43 °FFog.No wind100%29.86 "Hg3 mi
7:00 AM41 °FFog.1 mph100%29.89 "Hg3 mi
6:30 AM39 °FFog.5 mph100%29.89 "Hg3 mi
6:00 AM39 °FFog.2 mph100%29.89 "Hg3 mi
5:30 AM39 °FClear.No wind100%29.89 "Hg4 mi
5:00 AM39 °FClear.3 mph93%29.89 "Hg10 mi
Weather by CustomWeather, © 2014

See weather overview